| time (UTC) | temp F | wind direction | speed MPH | gust MPH | rain 1hr in | rain 24hr in | rain mn in | humidity % | barometer mb |
| 20260510200036 | 65 | 354 | 3.0 | 10.0 | 0.00 | 0.00 | 0.00 | 32 | 1022.9 |
| 20260510200034 | 75 | 142 | 0.0 | 1.0 | 0.00 | 0.00 | 0.00 | 66 | 1013.0 |
| 20260510194534 | 75 | 147 | 0.0 | 8.0 | 0.00 | 0.00 | 0.00 | 66 | 1013.0 |
| 20260510193042 | 65 | 38 | 5.0 | 9.0 | 0.00 | 0.00 | 0.00 | 31 | 1023.1 |
| 20260510193035 | 75 | 134 | 1.0 | 7.0 | 0.00 | 0.00 | 0.00 | 66 | 1013.0 |
| 20260510191538 | 75 | 137 | 0.0 | 7.0 | 0.00 | 0.00 | 0.00 | 68 | 1013.0 |
| 20260510190045 | 75 | 109 | 1.0 | 7.0 | 0.00 | 0.00 | 0.00 | 67 | 1013.1 |
| 20260510190034 | 65 | 56 | 3.0 | 13.0 | 0.00 | 0.00 | 0.00 | 30 | 1023.1 |
| 20260510184533 | 65 | 330 | 8.0 | 16.0 | 0.00 | 0.00 | 0.00 | 31 | 1023.0 |
| 20260510184531 | 75 | 158 | 0.0 | 5.0 | 0.00 | 0.00 | 0.00 | 66 | 1013.0 |
| 20260510183037 | 65 | 354 | 3.0 | 9.0 | 0.00 | 0.00 | 0.00 | 30 | 1022.9 |
| 20260510183027 | 75 | 147 | 0.0 | 7.0 | 0.00 | 0.00 | 0.00 | 66 | 1013.0 |
| 20260510181528 | 65 | 54 | 3.0 | 12.0 | 0.00 | 0.00 | 0.00 | 30 | 1023.0 |
| 20260510181522 | 74 | 151 | 0.0 | 0.0 | 0.00 | 0.00 | 0.00 | 68 | 1013.0 |
| 20260510180042 | 64 | 18 | 8.0 | 15.0 | 0.00 | 0.00 | 0.00 | 33 | 1023.2 |
| 20260510180023 | 72 | 160 | 0.0 | 0.0 | 0.00 | 0.00 | 0.00 | 70 | 1013.1 |
| 20260510174526 | 64 | 51 | 6.0 | 12.0 | 0.00 | 0.00 | 0.00 | 32 | 1023.3 |
| 20260510174519 | 73 | 155 | 0.0 | 0.0 | 0.00 | 0.00 | 0.00 | 69 | 1013.1 |
| 20260510173025 | 63 | 14 | 2.0 | 12.0 | 0.00 | 0.00 | 0.00 | 31 | 1023.1 |
| 20260510173015 | 72 | 150 | 0.0 | 0.0 | 0.00 | 0.00 | 0.00 | 72 | 1013.0 |
| 20260510171524 | 64 | 87 | 4.0 | 9.0 | 0.00 | 0.00 | 0.00 | 31 | 1023.0 |
| 20260510171511 | 71 | 146 | 0.0 | 0.0 | 0.00 | 0.00 | 0.00 | 73 | 1012.9 |
| 20260510170023 | 63 | 33 | 7.0 | 13.0 | 0.00 | 0.00 | 0.00 | 34 | 1022.8 |
| 20260510170008 | 70 | 150 | 0.0 | 0.0 | 0.00 | 0.00 | 0.00 | 75 | 1012.8 |
| 20260510164542 | 63 | 31 | 7.0 | 13.0 | 0.00 | 0.00 | 0.00 | 33 | 1022.9 |
| 20260510164506 | 69 | 149 | 0.0 | 0.0 | 0.00 | 0.00 | 0.00 | 75 | 1012.7 |
| 20260510163024 | 63 | 73 | 8.0 | 13.0 | 0.00 | 0.00 | 0.00 | 32 | 1022.7 |
| 20260510163003 | 68 | 150 | 0.0 | 0.0 | 0.00 | 0.00 | 0.00 | 78 | 1012.8 |
| 20260510161559 | 67 | 146 | 0.0 | 2.0 | 0.00 | 0.00 | 0.00 | 80 | 1012.7 |
| 20260510161521 | 63 | 73 | 4.0 | 11.0 | 0.00 | 0.00 | 0.00 | 35 | 1022.9 |
| 20260510160109 | 66 | 145 | 0.0 | 1.0 | 0.00 | 0.00 | 0.00 | 81 | 1012.6 |
| 20260510160026 | 62 | 12 | 5.0 | 10.0 | 0.00 | 0.00 | 0.00 | 37 | 1023.1 |
| 20260510154619 | 65 | 145 | 0.0 | 0.0 | 0.00 | 0.00 | 0.00 | 83 | 1012.5 |
| 20260510154520 | 61 | 12 | 2.0 | 12.0 | 0.00 | 0.00 | 0.00 | 36 | 1023.1 |
| 20260510153101 | 64 | 134 | 0.0 | 4.0 | 0.00 | 0.00 | 0.00 | 84 | 1012.6 |
| 20260510153025 | 60 | 347 | 5.0 | 10.0 | 0.00 | 0.00 | 0.00 | 38 | 1022.8 |
| 20260510151547 | 64 | 122 | 0.0 | 0.0 | 0.00 | 0.00 | 0.00 | 84 | 1012.6 |
| 20260510151518 | 59 | 29 | 5.0 | 13.0 | 0.00 | 0.00 | 0.00 | 37 | 1022.5 |
| 20260510150018 | 60 | 12 | 5.0 | 11.0 | 0.00 | 0.00 | 0.00 | 38 | 1022.6 |
| 20260510144606 | 63 | 122 | 0.0 | 0.0 | 0.00 | 0.00 | 0.00 | 86 | 1012.6 |
| 20260510144522 | 59 | 12 | 4.0 | 11.0 | 0.00 | 0.00 | 0.00 | 41 | 1022.6 |
| 20260510143042 | 62 | 122 | 0.0 | 0.0 | 0.00 | 0.00 | 0.00 | 86 | 1012.5 |
| 20260510143017 | 58 | 12 | 6.0 | 11.0 | 0.00 | 0.00 | 0.00 | 40 | 1022.9 |
| 20260510141545 | 62 | 122 | 0.0 | 1.0 | 0.00 | 0.00 | 0.00 | 87 | 1012.6 |
| 20260510141515 | 57 | 330 | 5.0 | 10.0 | 0.00 | 0.00 | 0.00 | 43 | 1022.9 |
| 20260510140041 | 62 | 123 | 0.0 | 0.0 | 0.00 | 0.00 | 0.00 | 86 | 1012.4 |
| 20260510140014 | 56 | 75 | 4.0 | 9.0 | 0.00 | 0.00 | 0.00 | 44 | 1022.8 |
| 20260510134548 | 62 | 123 | 0.0 | 0.0 | 0.00 | 0.00 | 0.00 | 86 | 1012.2 |
| 20260510134512 | 55 | 33 | 4.0 | 9.0 | 0.00 | 0.00 | 0.00 | 45 | 1022.6 |
| 20260510133040 | 62 | 122 | 0.0 | 0.0 | 0.00 | 0.00 | 0.00 | 87 | 1012.1 |
| 20260510133009 | 55 | 350 | 3.0 | 6.0 | 0.00 | 0.00 | 0.00 | 45 | 1022.4 |
| 20260510131540 | 62 | 121 | 0.0 | 0.0 | 0.00 | 0.00 | 0.00 | 87 | 1011.9 |
| 20260510131507 | 55 | 63 | 4.0 | 8.0 | 0.00 | 0.00 | 0.00 | 46 | 1022.1 |
| 20260510130039 | 62 | 121 | 0.0 | 0.0 | 0.00 | 0.00 | 0.00 | 87 | 1011.7 |
| 20260510130013 | 54 | 340 | 2.0 | 6.0 | 0.00 | 0.00 | 0.00 | 49 | 1021.8 |
| 20260510124541 | 62 | 121 | 0.0 | 0.0 | 0.00 | 0.00 | 0.00 | 86 | 1011.8 |
| 20260510124508 | 54 | 35 | 2.0 | 9.0 | 0.00 | 0.00 | 0.00 | 47 | 1021.6 |
| 20260510123037 | 62 | 121 | 0.0 | 0.0 | 0.00 | 0.00 | 0.00 | 87 | 1011.9 |
| 20260510123003 | 54 | 48 | 5.0 | 10.0 | 0.00 | 0.00 | 0.00 | 48 | 1021.2 |
| 20260510121601 | 54 | 335 | 5.0 | 8.0 | 0.00 | 0.00 | 0.00 | 47 | 1021.2 |
| 20260510121538 | 62 | 125 | 0.0 | 0.0 | 0.00 | 0.00 | 0.00 | 87 | 1011.8 |
| 20260510120056 | 55 | 359 | 4.0 | 10.0 | 0.00 | 0.00 | 0.00 | 47 | 1020.6 |
| 20260510120035 | 62 | 123 | 0.0 | 0.0 | 0.00 | 0.00 | 0.00 | 87 | 1011.9 |
| 20260510114553 | 55 | 319 | 3.0 | 10.0 | 0.00 | 0.00 | 0.00 | 46 | 1020.3 |
| 20260510114534 | 62 | 117 | 0.0 | 0.0 | 0.00 | 0.00 | 0.00 | 87 | 1011.8 |
| 20260510113100 | 55 | 42 | 5.0 | 11.0 | 0.00 | 0.00 | 0.00 | 45 | 1020.1 |
| 20260510113033 | 62 | 140 | 0.0 | 0.0 | 0.00 | 0.00 | 0.00 | 87 | 1011.8 |
| 20260510111606 | 55 | 32 | 3.0 | 9.0 | 0.00 | 0.00 | 0.00 | 46 | 1020.0 |
| 20260510111537 | 62 | 140 | 0.0 | 0.0 | 0.00 | 0.00 | 0.00 | 87 | 1011.8 |
| 20260510110048 | 56 | 42 | 3.0 | 10.0 | 0.00 | 0.00 | 0.00 | 45 | 1019.7 |
| 20260510110033 | 62 | 140 | 0.0 | 0.0 | 0.00 | 0.00 | 0.00 | 87 | 1011.9 |
| 20260510104601 | 56 | 341 | 6.0 | 10.0 | 0.00 | 0.00 | 0.00 | 46 | 1020.0 |
| 20260510104541 | 62 | 140 | 0.0 | 0.0 | 0.00 | 0.00 | 0.00 | 88 | 1011.8 |
| 20260510103043 | 56 | 347 | 3.0 | 12.0 | 0.00 | 0.00 | 0.00 | 45 | 1019.6 |
| 20260510103030 | 62 | 140 | 0.0 | 0.0 | 0.00 | 0.00 | 0.00 | 88 | 1012.0 |
| 20260510101540 | 57 | 349 | 5.0 | 10.0 | 0.00 | 0.00 | 0.00 | 44 | 1019.0 |
| 20260510101528 | 62 | 140 | 0.0 | 0.0 | 0.00 | 0.00 | 0.00 | 89 | 1012.0 |
| 20260510100039 | 57 | 359 | 5.0 | 12.0 | 0.00 | 0.00 | 0.00 | 45 | 1018.8 |
| 20260510100027 | 62 | 150 | 0.0 | 0.0 | 0.00 | 0.00 | 0.00 | 89 | 1012.0 |
| 20260510094539 | 57 | 328 | 4.0 | 10.0 | 0.00 | 0.00 | 0.00 | 46 | 1018.3 |
| 20260510094528 | 62 | 152 | 0.0 | 0.0 | 0.00 | 0.00 | 0.00 | 89 | 1011.9 |
| 20260510093033 | 57 | 332 | 5.0 | 9.0 | 0.00 | 0.00 | 0.00 | 49 | 1018.3 |
| 20260510093025 | 62 | 143 | 0.0 | 0.0 | 0.00 | 0.00 | 0.00 | 89 | 1011.9 |
| 20260510091548 | 57 | 41 | 5.0 | 11.0 | 0.00 | 0.00 | 0.00 | 50 | 1018.2 |
| 20260510091527 | 62 | 140 | 0.0 | 1.0 | 0.00 | 0.00 | 0.00 | 89 | 1012.0 |
| 20260510090027 | 58 | 318 | 5.0 | 9.0 | 0.00 | 0.00 | 0.00 | 49 | 1017.9 |
| 20260510090024 | 62 | 138 | 0.0 | 0.0 | 0.00 | 0.00 | 0.00 | 90 | 1012.1 |
| 20260510084541 | 62 | 138 | 0.0 | 1.0 | 0.00 | 0.00 | 0.00 | 90 | 1012.0 |
| 20260510084526 | 59 | 56 | 6.0 | 10.0 | 0.00 | 0.00 | 0.00 | 48 | 1017.9 |
| 20260510083022 | 59 | 35 | 5.0 | 9.0 | 0.00 | 0.00 | 0.00 | 47 | 1018.0 |
| 20260510083020 | 62 | 138 | 0.0 | 0.0 | 0.00 | 0.00 | 0.00 | 90 | 1012.1 |
| 20260510081532 | 59 | 38 | 4.0 | 7.0 | 0.00 | 0.00 | 0.00 | 49 | 1017.8 |
| 20260510081530 | 62 | 137 | 0.0 | 1.0 | 0.00 | 0.00 | 0.00 | 90 | 1012.3 |
| 20260510080017 | 61 | 136 | 0.0 | 0.0 | 0.00 | 0.00 | 0.00 | 90 | 1012.3 |
| 20260510074516 | 61 | 136 | 0.0 | 0.0 | 0.00 | 0.00 | 0.00 | 90 | 1012.4 |
| 20260510074514 | 60 | 32 | 4.0 | 8.0 | 0.00 | 0.00 | 0.00 | 53 | 1017.2 |
| 20260510073022 | 60 | 54 | 3.0 | 8.0 | 0.00 | 0.00 | 0.00 | 55 | 1017.0 |
| 20260510073015 | 61 | 136 | 0.0 | 0.0 | 0.00 | 0.00 | 0.00 | 90 | 1012.5 |
| 20260510071514 | 61 | 130 | 0.0 | 1.0 | 0.00 | 0.00 | 0.00 | 90 | 1012.4 |
| 20260510071512 | 61 | 42 | 2.0 | 4.0 | 0.00 | 0.00 | 0.00 | 56 | 1017.0 |
| 20260510070012 | 61 | 104 | 0.0 | 2.0 | 0.00 | 0.00 | 0.00 | 90 | 1012.5 |
| 20260510064516 | 62 | 359 | 5.0 | 10.0 | 0.00 | 0.01 | 0.00 | 55 | 1016.2 |
| 20260510064512 | 61 | 139 | 0.0 | 0.0 | 0.00 | 0.00 | 0.00 | 90 | 1012.5 |
| 20260510063013 | 61 | 148 | 0.0 | 0.0 | 0.00 | 0.00 | 0.00 | 90 | 1012.6 |
| 20260510063006 | 63 | 354 | 1.0 | 6.0 | 0.00 | 0.01 | 0.00 | 56 | 1016.3 |
| 20260510061600 | 63 | 23 | 2.0 | 8.0 | 0.00 | 0.01 | 0.00 | 56 | 1016.0 |
| 20260510061512 | 61 | 148 | 0.0 | 0.0 | 0.00 | 0.00 | 0.00 | 90 | 1012.7 |
| 20260510060059 | 64 | 359 | 4.0 | 8.0 | 0.00 | 0.01 | 0.00 | 56 | 1016.0 |
| 20260510060018 | 61 | 148 | 0.0 | 0.0 | 0.00 | 0.00 | 0.00 | 90 | 1012.7 |
| 20260510054555 | 64 | 354 | 3.0 | 5.0 | 0.00 | 0.01 | 0.00 | 56 | 1015.5 |
| 20260510054510 | 61 | 148 | 0.0 | 0.0 | 0.00 | 0.00 | 0.00 | 90 | 1012.7 |
| 20260510053052 | 64 | 339 | 2.0 | 3.0 | 0.00 | 0.01 | 0.00 | 56 | 1015.1 |
| 20260510053009 | 61 | 147 | 0.0 | 0.0 | 0.00 | 0.00 | 0.00 | 90 | 1012.8 |
| 20260510051554 | 64 | 348 | 1.0 | 3.0 | 0.00 | 0.01 | 0.00 | 55 | 1014.8 |
| 20260510051509 | 61 | 146 | 0.0 | 1.0 | 0.00 | 0.00 | 0.00 | 90 | 1012.8 |
| 20260510050046 | 65 | 354 | 2.0 | 5.0 | 0.00 | 0.01 | 0.00 | 54 | 1014.7 |
| 20260510050008 | 61 | 144 | 0.0 | 0.0 | 0.00 | 0.00 | 0.00 | 90 | 1012.8 |
| 20260510044553 | 65 | 48 | 1.0 | 5.0 | 0.00 | 0.01 | 0.01 | 54 | 1014.4 |
| 20260510044508 | 61 | 112 | 1.0 | 4.0 | 0.00 | 0.00 | 0.00 | 90 | 1012.8 |
| 20260510043045 | 65 | 18 | 2.0 | 5.0 | 0.00 | 0.01 | 0.01 | 54 | 1014.4 |
| 20260510043008 | 61 | 146 | 1.0 | 6.0 | 0.00 | 0.00 | 0.00 | 90 | 1012.7 |
| 20260510041550 | 66 | 33 | 0.0 | 4.0 | 0.00 | 0.01 | 0.01 | 54 | 1014.3 |
| 20260510041506 | 61 | 140 | 0.0 | 6.0 | 0.00 | 0.00 | 0.00 | 89 | 1012.6 |
| 20260510040041 | 66 | 348 | 1.0 | 5.0 | 0.00 | 0.01 | 0.01 | 54 | 1013.9 |
| 20260510040006 | 61 | 159 | 0.0 | 4.0 | 0.00 | 0.00 | 0.00 | 89 | 1012.2 |
| 20260510034544 | 67 | 27 | 1.0 | 4.0 | 0.00 | 0.01 | 0.01 | 51 | 1013.5 |
| 20260510034505 | 62 | 151 | 0.0 | 5.0 | 0.00 | 0.00 | 0.00 | 89 | 1012.3 |
| 20260510033038 | 67 | 354 | 2.0 | 5.0 | 0.00 | 0.01 | 0.01 | 50 | 1013.3 |
| 20260510033005 | 62 | 149 | 1.0 | 7.0 | 0.00 | 0.00 | 0.00 | 88 | 1012.1 |
| 20260510031540 | 68 | 48 | 3.0 | 9.0 | 0.00 | 0.01 | 0.01 | 48 | 1012.8 |
| 20260510031505 | 63 | 133 | 0.0 | 7.0 | 0.00 | 0.00 | 0.00 | 87 | 1011.9 |
| 20260510030038 | 69 | 13 | 5.0 | 12.0 | 0.00 | 0.01 | 0.01 | 47 | 1012.8 |
| 20260510030004 | 63 | 153 | 0.0 | 7.0 | 0.00 | 0.00 | 0.00 | 86 | 1011.6 |
| 20260510024603 | 64 | 155 | 0.0 | 8.0 | 0.00 | 0.00 | 0.00 | 85 | 1011.3 |
| 20260510024541 | 69 | 10 | 4.0 | 8.0 | 0.00 | 0.01 | 0.01 | 48 | 1012.7 |
| 20260510023033 | 69 | 326 | 2.0 | 5.0 | 0.00 | 0.01 | 0.01 | 51 | 1012.2 |
| 20260510023003 | 65 | 121 | 0.0 | 9.0 | 0.00 | 0.00 | 0.00 | 84 | 1011.2 |
| 20260510021530 | 69 | 212 | 0.0 | 4.0 | 0.00 | 0.01 | 0.01 | 53 | 1011.5 |
| 20260510021502 | 66 | 186 | 1.0 | 7.0 | 0.00 | 0.00 | 0.00 | 82 | 1011.2 |
| 20260510020027 | 70 | 16 | 0.0 | 1.0 | 0.00 | 0.01 | 0.01 | 51 | 1011.1 |
| 20260510020002 | 66 | 152 | 2.0 | 8.0 | 0.00 | 0.00 | 0.00 | 81 | 1011.0 |
| 20260510014529 | 70 | 50 | 1.0 | 3.0 | 0.00 | 0.01 | 0.01 | 47 | 1010.8 |
| 20260510014501 | 67 | 128 | 1.0 | 10.0 | 0.00 | 0.00 | 0.00 | 79 | 1010.9 |
| 20260510013026 | 71 | 343 | 2.0 | 8.0 | 0.00 | 0.01 | 0.01 | 47 | 1010.6 |
| 20260510013003 | 68 | 137 | 2.0 | 8.0 | 0.00 | 0.00 | 0.00 | 78 | 1010.8 |
| 20260510011600 | 69 | 149 | 3.0 | 9.0 | 0.00 | 0.00 | 0.00 | 77 | 1010.8 |
| 20260510011525 | 72 | 321 | 5.0 | 18.0 | 0.00 | 0.01 | 0.01 | 45 | 1010.5 |
| 20260510010059 | 69 | 159 | 0.0 | 8.0 | 0.00 | 0.00 | 0.00 | 77 | 1010.7 |
| 20260510010023 | 72 | 359 | 4.0 | 13.0 | 0.00 | 0.01 | 0.01 | 44 | 1010.4 |
| 20260510004603 | 70 | 138 | 2.0 | 9.0 | 0.00 | 0.00 | 0.00 | 75 | 1010.6 |
| 20260510004522 | 73 | 9 | 9.0 | 18.0 | 0.00 | 0.01 | 0.01 | 44 | 1009.9 |
| 20260510003103 | 70 | 152 | 4.0 | 9.0 | 0.00 | 0.00 | 0.00 | 74 | 1010.7 |
| 20260510003022 | 74 | 23 | 6.0 | 16.0 | 0.00 | 0.01 | 0.01 | 44 | 1009.8 |
| 20260510001557 | 71 | 161 | 0.0 | 7.0 | 0.00 | 0.00 | 0.00 | 73 | 1010.6 |
| 20260510001521 | 74 | 347 | 7.0 | 15.0 | 0.00 | 0.01 | 0.01 | 45 | 1009.6 |
| 20260510000057 | 72 | 121 | 2.0 | 8.0 | 0.00 | 0.00 | 0.00 | 72 | 1010.7 |
| 20260510000025 | 74 | 24 | 4.0 | 12.0 | 0.00 | 0.01 | 0.01 | 45 | 1009.4 |
| 20260509234556 | 72 | 158 | 4.0 | 9.0 | 0.00 | 0.00 | 0.00 | 70 | 1010.7 |
| 20260509234534 | 74 | 339 | 9.0 | 16.0 | 0.00 | 0.01 | 0.01 | 43 | 1009.3 |
| 20260509233100 | 73 | 162 | 0.0 | 7.0 | 0.00 | 0.00 | 0.00 | 69 | 1010.7 |
| 20260509233034 | 75 | 348 | 11.0 | 15.0 | 0.00 | 0.01 | 0.01 | 43 | 1009.2 |
| 20260509231559 | 73 | 158 | 0.0 | 5.0 | 0.00 | 0.00 | 0.00 | 70 | 1010.7 |
| 20260509231519 | 76 | 47 | 6.0 | 16.0 | 0.00 | 0.01 | 0.01 | 41 | 1009.1 |
| 20260509230053 | 73 | 174 | 1.0 | 7.0 | 0.00 | 0.00 | 0.00 | 70 | 1010.8 |
| 20260509230019 | 76 | 328 | 4.0 | 14.0 | 0.00 | 0.01 | 0.01 | 41 | 1009.1 |
| 20260509224618 | 76 | 322 | 4.0 | 18.0 | 0.00 | 0.01 | 0.01 | 40 | 1009.0 |
| 20260509224551 | 73 | 152 | 0.0 | 9.0 | 0.00 | 0.00 | 0.00 | 70 | 1010.8 |
| 20260509223050 | 74 | 216 | 0.0 | 7.0 | 0.00 | 0.00 | 0.00 | 69 | 1011.2 |
| 20260509223018 | 77 | 11 | 6.0 | 16.0 | 0.00 | 0.01 | 0.01 | 39 | 1008.9 |
| 20260509221547 | 74 | 152 | 0.0 | 11.0 | 0.00 | 0.00 | 0.00 | 68 | 1011.4 |
| 20260509221517 | 80 | 354 | 10.0 | 19.0 | 0.00 | 0.01 | 0.01 | 34 | 1008.6 |
| 20260509220052 | 74 | 173 | 0.0 | 4.0 | 0.00 | 0.00 | 0.00 | 68 | 1011.5 |
| 20260509220025 | 82 | 273 | 7.0 | 15.0 | 0.00 | 0.01 | 0.01 | 29 | 1007.9 |
| 20260509214545 | 75 | 171 | 0.0 | 1.0 | 0.00 | 0.00 | 0.00 | 66 | 1011.5 |
| 20260509214516 | 84 | 224 | 9.0 | 22.0 | 0.00 | 0.02 | 0.01 | 28 | 1007.7 |
| 20260509213043 | 76 | 133 | 0.0 | 4.0 | 0.00 | 0.00 | 0.00 | 65 | 1011.7 |
| 20260509213016 | 84 | 260 | 5.0 | 20.0 | 0.00 | 0.02 | 0.01 | 26 | 1007.7 |
| 20260509211545 | 75 | 182 | 0.0 | 7.0 | 0.00 | 0.00 | 0.00 | 66 | 1011.6 |
| 20260509211515 | 85 | 317 | 8.0 | 17.0 | 0.00 | 0.02 | 0.01 | 27 | 1007.6 |
| 20260509210040 | 75 | 146 | 0.0 | 7.0 | 0.00 | 0.00 | 0.00 | 67 | 1011.8 |
| 20260509210014 | 84 | 258 | 9.0 | 22.0 | 0.00 | 0.02 | 0.01 | 27 | 1007.7 |
| 20260509204535 | 75 | 144 | 0.0 | 7.0 | 0.00 | 0.00 | 0.00 | 67 | 1012.0 |
| 20260509204512 | 85 | 233 | 5.0 | 14.0 | 0.00 | 0.06 | 0.01 | 28 | 1007.7 |
| 20260509203032 | 75 | 139 | 0.0 | 5.0 | 0.00 | 0.00 | 0.00 | 68 | 1012.2 |
| 20260509203009 | 85 | 204 | 11.0 | 23.0 | 0.00 | 0.06 | 0.01 | 27 | 1007.7 |
| 20260509201528 | 74 | 153 | 0.0 | 2.0 | 0.00 | 0.00 | 0.00 | 69 | 1012.2 |
| 20260509201506 | 84 | 237 | 8.0 | 19.0 | 0.00 | 0.06 | 0.01 | 31 | 1008.0 |